This is the latest recevied weather packets stored in our database for station/object NorthRyde. If no packets are shown the sender has not sent any weather packets the latest 10 day(s).
| Time | Temp. | Humidity | Pressure | Rain* | Wind** | Luminosity | Snow |
|---|---|---|---|---|---|---|---|
| 1777481062 | 17.22° C | 93% | 1031 hPa | 7.11 mm | - | 0 W/m² | - |
| 1777480990 | 17.22° C | 93% | 1031 hPa | 7.37 mm | - | 0 W/m² | - |
| 1777480931 | 17.22° C | 93% | 1031 hPa | 7.37 mm | - | 0 W/m² | - |
| 1777480869 | 17.22° C | 93% | 1031 hPa | 7.37 mm | - | 0 W/m² | - |
| 1777480811 | 17.22° C | 93% | 1030.9 hPa | 7.37 mm | - | 0 W/m² | - |
| 1777480769 | 17.22° C | 93% | 1031.1 hPa | 7.37 mm | - | 0 W/m² | - |
| 1777480692 | 17.22° C | 93% | 1031 hPa | 7.37 mm | - | 0 W/m² | - |
| 1777480628 | 17.22° C | 93% | 1030.9 hPa | 7.37 mm | - | 0 W/m² | - |
| 1777480571 | 17.22° C | 93% | 1031 hPa | 7.62 mm | - | 0 W/m² | - |
| 1777480515 | 17.22° C | 93% | 1030.9 hPa | 7.62 mm | - | 0 W/m² | - |
| 1777480465 | 17.22° C | 93% | 1031 hPa | 7.62 mm | - | 0 W/m² | - |
| 1777480390 | 17.22° C | 93% | 1031 hPa | 7.62 mm | - | 0 W/m² | - |
| 1777480338 | 17.22° C | 93% | 1031.1 hPa | 7.62 mm | - | 0 W/m² | - |
| 1777480270 | 17.22° C | 93% | 1031.1 hPa | 7.62 mm | - | 0 W/m² | - |
| 1777480213 | 17.22° C | 93% | 1031.2 hPa | 7.87 mm | - | 0 W/m² | - |
| 1777480167 | 17.22° C | 93% | 1031.1 hPa | 7.87 mm | - | 0 W/m² | - |
| 1777480090 | 17.22° C | 93% | 1031.2 hPa | 7.62 mm | - | 0 W/m² | - |
| 1777480032 | 17.22° C | 93% | 1031.2 hPa | 7.62 mm | - | 0 W/m² | - |
| 1777479970 | 17.22° C | 93% | 1031.2 hPa | 7.37 mm | - | 0 W/m² | - |
| 1777479910 | 17.22° C | 93% | 1031.3 hPa | 7.37 mm | - | 0 W/m² | - |
| 1777479853 | 17.22° C | 93% | 1031.2 hPa | 7.37 mm | - | 0 W/m² | - |
| 1777479789 | 17.22° C | 93% | 1031.2 hPa | 7.11 mm | - | 0 W/m² | - |
| 1777479731 | 17.22° C | 93% | 1031.3 hPa | 7.11 mm | - | 0 W/m² | - |
| 1777479668 | 17.22° C | 93% | 1031.3 hPa | 6.86 mm | - | 0 W/m² | - |
| 1777479609 | 17.22° C | 93% | 1031.2 hPa | 6.6 mm | - | 0 W/m² | - |
* Rain latest hour (hover to see other rain measurements)
** Current wind speed in m/s (hover to see current wind gust speed)